Regional Weather Roundup
Issued by NWS Northern Indiana

Home | Current Version | Previous Version | Graphics & Text | Print | Product List | Glossary On
Versions: 1 2 3 4 5 6 7 8 9 10 11 12 13 14 15 16 17 18 19 20 21 22 23 24 25 26 27 28 29 30 31 32 33 34 35 36 37 38 39 40 41 42 43 44 45 46 47 48 49 50
051
ASUS43 KIWX 261000
RWRIWX

KIWX WEATHER ROUNDUP
NATIONAL WEATHER SERVICE NORTHERN INDIANA
600 AM EDT TUE JUL 26 2016

NOTE: "FAIR" INDICATES FEW OR NO CLOUDS BELOW 12,000 FEET WITH NO
SIGNIFICANT WEATHER AND/OR OBSTRUCTIONS TO VISIBILITY.

* THESE STATIONS ARE NOT UNDER NWS QUALITY CONTROL. THEY ALSO MAY NOT
  REPORT WEATHER SUCH AS PRECIPITATION OR FOG.

INZ001>027-261100-
NORTHERN INDIANA

CITY           SKY/WX    TMP DP  RH WIND       PRES   REMARKS
GARY*          PTCLDY    66  66 100 CALM      30.05R
KNOX*          PTCLDY    63  61  94 CALM      30.05R
SOUTH BEND     PTCLDY    64  62  93 CALM      30.06R
GOSHEN         CLOUDY    63  60  90 CALM      30.06R
MONTICELLO*    PTCLDY    65  61  86 NE5       30.04S
ANGOLA*          N/A     61  61 100 CALM      30.06R
FORT WAYNE     PTCLDY    62  60  93 CALM      30.06R
PERU/GRISSOM   CLEAR     64  64  99 SE2       30.05R

$$
INZ028>050-261100-
CENTRAL INDIANA

CITY           SKY/WX    TMP DP  RH WIND       PRES   REMARKS
LAFAYETTE      CLOUDY    70  67  90 N3        30.04R
KOKOMO*        CLEAR     63  57  82 CALM      30.06R
MUNCIE*        PTCLDY    68  65  90 N3        30.05R
INDIANAPOLIS   CLOUDY    75  65  70 NE8       30.04R

$$
MIZ043>046-050>051-056>058-064>065-071>073-077>080-261100-
SOUTHWEST LOWER MICHIGAN

CITY           SKY/WX    TMP DP  RH WIND       PRES   REMARKS
BATTLE CREEK   CLEAR     61  61 100 CALM      30.07R
BENTON HARBOR  CLEAR     62  60  93 CALM      30.05R
COLDWATER*     PTCLDY    61  61 100 CALM      30.06R FOG
HILLSDALE*     CLEAR     59  58  97 CALM      30.06R
HOLLAND        CLEAR     64  62  93 CALM      30.06R
GRAND RAPIDS   PTCLDY    64  61  90 CALM      30.06R
KALAMAZOO      CLEAR     63  60  90 CALM      30.07R
STURGIS*       PTCLDY    61  61  98 CALM      30.06R
THREE RIVERS*  FAIR      64  62  94 CALM      30.07R

$$
OHZ001>008-015>018-024>025-261100-
NORTHWEST OHIO

CITY           SKY/WX    TMP DP  RH WIND       PRES   REMARKS
DEFIANCE       PTCLDY    65  61  87 CALM      30.05R
FINDLAY        CLEAR     68  62  81 CALM      30.03R
TOLEDO EXPRESS PTCLDY    66  65  96 CALM      30.04R
TOLEDO METCALF CLEAR     70  63  78 N3        30.04R
LIMA           CLEAR     65  64  97 CALM      30.04R

$$
AND FOR LAKE MICHIGAN COASTAL AND OPEN LAKE BUOY OBSERVATIONS

STATION/POSITION TEMP    WIND        PRES    VSBY  WAVE
                 AIR SEA DIR/SP/G                  HT/PER
                 (F)     (DEG/KT/KT) (MB)    (MI)  (FT/S)
CALUMET HARBOR    71      CALM  /  1 1016.5R
MICHIGAN CITY     71     130/  1/  2   N/A
BURNS HARBOR      73      CALM  /  2 1017.6R
SAINT JOSEPH      69      CALM  /  1 1017.9R
SOUTH LAKE BUOY   73 73  220/  4/  6 1016.2          0
4 MI NW BRIDGMAN  73 76  110/  2/  2 1016.8R         0
MICHIGAN CITY     74 74  200/  2/  2   N/A           1

$$
&&




USA.gov is the U.S. government's official web portal to all federal, state and local government web resources and services.